Date String (YYYY-MM-DD hh:mm:ss) UTC,Instrument flags,Ambient pressure (hPa),Sample flow (lpm),Bypass flow (lpm),Sample temperature (°C),Ambient temperature (°C),ASC tube jacket temperature (°C),LED temperature (°C),Box temperature (°C),Sample RH (%),Span deviation,Mass concentration (μg/m³),Mass concentration (μg/m³),Mass concentration (μg/m³)
DateTimeUTC,F1_M11,P_M11,Q1_M11,Q2_M11,T1_M11,T2_M11,T3_M11,T4_M11,T5_M11,U1_M11,ZSPAN_M11,X2_M11,X0_M11,X1_M11
2021-12-28 23:00:00,,0810.2,5.01,0.00,21.7,21.1,00.0,30.8,23.4,06.7,0000.0,0002.92,0011.52,0001.09
2021-12-28 23:01:00,,0810.2,4.98,0.00,21.7,21.1,00.0,30.8,23.4,06.7,0000.0,0002.96,0011.25,0001.09
2021-12-28 23:02:00,,0810.2,5.01,0.00,21.7,21.1,00.0,30.8,23.4,06.7,0000.0,0002.92,0011.32,0001.09
2021-12-28 23:03:00,,0810.2,4.99,0.00,21.7,21.1,00.0,30.8,23.4,06.7,0000.0,0002.83,0012.39,0001.09
2021-12-28 23:04:00,,0810.2,4.99,0.00,21.7,21.0,00.0,30.8,23.3,06.7,0000.0,0002.80,0012.69,0001.09
2021-12-28 23:05:00,,0810.2,5.01,0.00,21.7,21.0,00.0,30.8,23.3,06.7,0000.0,0002.69,0012.74,0001.09
2021-12-28 23:06:00,,0810.2,4.99,0.00,21.7,21.0,00.0,30.8,23.3,06.7,0000.0,0002.73,0012.76,0001.09
2021-12-28 23:07:00,,0810.3,5.01,0.00,21.7,21.0,00.0,30.8,23.3,06.6,0000.0,0002.77,0012.86,0001.09
2021-12-28 23:08:00,,0810.4,4.99,0.00,21.7,21.3,00.0,30.8,23.4,06.6,0000.0,0002.70,0012.22,0001.08
2021-12-28 23:09:00,,0810.3,4.99,0.00,21.8,22.1,00.0,30.8,23.7,06.6,0000.0,0002.66,0012.03,0001.07
2021-12-28 23:10:00,,0810.4,5.00,0.00,22.0,22.8,00.0,30.9,24.0,06.5,0000.0,0002.78,0012.16,0001.08
2021-12-28 23:11:00,,0810.5,5.01,0.00,22.0,22.6,00.0,30.9,24.0,06.5,0000.0,0002.89,0012.60,0001.07
2021-12-28 23:12:00,,0810.5,4.99,0.00,22.0,22.3,00.0,30.9,23.9,06.5,0000.0,0002.86,0012.88,0001.05
2021-12-28 23:13:00,,0810.5,5.01,0.00,22.0,22.1,00.0,30.9,23.7,06.4,0000.0,0002.82,0014.37,0001.03
2021-12-28 23:14:00,,0810.5,5.00,0.00,22.0,21.9,00.0,30.9,23.7,06.5,0000.0,0002.82,0014.16,0001.00
2021-12-28 23:15:00,,0810.5,5.01,0.00,22.0,21.7,00.0,30.9,23.6,06.5,0000.0,0002.84,0014.92,0000.99
2021-12-28 23:16:00,,0810.5,4.98,0.00,22.0,21.6,00.0,30.9,23.6,06.4,0000.0,0003.00,0015.51,0000.98
2021-12-28 23:17:00,,0810.5,5.01,0.00,21.9,21.5,00.0,30.9,23.6,06.5,0000.0,0003.00,0016.36,0000.97
2021-12-28 23:18:00,,0810.4,5.00,0.00,21.9,21.5,00.0,30.9,23.5,06.5,0000.0,0003.06,0016.19,0000.97
2021-12-28 23:19:00,,0810.4,4.99,0.00,21.9,21.3,00.0,30.9,23.5,06.5,0000.0,0003.05,0016.12,0000.97
2021-12-28 23:20:00,,0810.4,5.00,0.00,21.8,21.3,00.0,30.9,23.4,06.5,0000.0,0003.11,0017.43,0000.97
2021-12-28 23:21:00,,0810.4,5.00,0.00,21.8,21.2,00.0,30.9,23.4,06.5,0000.0,0003.08,0017.38,0000.97
2021-12-28 23:22:00,,0810.5,5.00,0.00,21.8,21.2,00.0,30.9,23.4,06.5,0000.0,0002.96,0017.37,0000.99
2021-12-28 23:23:00,,0810.5,5.01,0.00,21.8,21.1,00.0,30.9,23.4,06.5,0000.0,0002.89,0016.62,0000.99
2021-12-28 23:24:00,,0810.6,5.01,0.00,21.7,21.0,00.0,30.9,23.3,06.5,0000.0,0002.91,0015.54,0000.99
2021-12-28 23:25:00,,0810.6,4.99,0.00,21.7,21.0,00.0,30.9,23.3,06.5,0000.0,0002.87,0015.10,0000.99
2021-12-28 23:26:00,,0810.6,5.00,0.00,21.7,20.9,00.0,30.8,23.2,06.5,0000.0,0002.87,0014.07,0000.99
2021-12-28 23:27:00,,0810.6,5.01,0.00,21.6,20.9,00.0,30.8,23.2,06.5,0000.0,0002.75,0013.73,0000.99
2021-12-28 23:28:00,,0810.6,4.98,0.00,21.6,20.9,00.0,30.8,23.2,06.5,0000.0,0002.74,0013.96,0000.98
2021-12-28 23:29:00,,0810.6,5.01,0.00,21.7,21.5,00.0,30.8,23.4,06.5,0000.0,0002.69,0014.06,0000.97
2021-12-28 23:30:00,,0810.6,4.99,0.00,21.8,22.4,00.0,30.9,23.8,06.5,0000.0,0002.70,0014.96,0000.96
2021-12-28 23:31:00,,0810.7,5.00,0.00,22.0,22.9,00.0,30.9,24.0,06.4,0000.0,0002.74,0014.27,0000.97
2021-12-28 23:32:00,,0810.7,4.99,0.00,22.1,22.7,00.0,30.9,24.0,06.4,0000.0,0002.71,0014.66,0000.95
2021-12-28 23:33:00,,0810.6,5.01,0.00,22.1,22.4,00.0,31.0,23.9,06.4,0000.0,0002.73,0016.13,0000.92
2021-12-28 23:34:00,,0810.6,4.99,0.00,22.0,22.2,00.0,31.0,23.8,06.4,0000.0,0002.80,0016.32,0000.91
2021-12-28 23:35:00,,0810.6,5.00,0.00,22.0,21.9,00.0,31.0,23.7,06.3,0000.0,0002.85,0016.95,0000.91
2021-12-28 23:36:00,,0810.6,4.99,0.00,22.0,21.7,00.0,31.0,23.6,06.3,0000.0,0002.85,0017.32,0000.89
2021-12-28 23:37:00,,0810.6,5.01,0.00,21.9,21.6,00.0,31.0,23.5,06.3,0000.0,0002.82,0017.83,0000.87
2021-12-28 23:38:00,,0810.7,5.01,0.00,21.9,21.5,00.0,31.0,23.5,06.3,0000.0,0002.86,0018.31,0000.85
2021-12-28 23:39:00,,0810.8,4.99,0.00,21.9,21.4,00.0,31.0,23.5,06.3,0000.0,0002.87,0017.63,0000.84
2021-12-28 23:40:00,,0810.8,5.00,0.00,21.9,21.3,00.0,30.9,23.4,06.3,0000.0,0002.87,0017.49,0000.82
2021-12-28 23:41:00,,0810.8,4.99,0.00,21.8,21.3,00.0,30.9,23.4,06.3,0000.0,0002.88,0017.34,0000.80
2021-12-28 23:42:00,,0810.8,4.99,0.00,21.8,21.2,00.0,30.9,23.4,06.3,0000.0,0002.80,0017.86,0000.77
2021-12-28 23:43:00,,0810.7,5.00,0.00,21.8,21.1,00.0,30.9,23.3,06.3,0000.0,0002.78,0017.43,0000.75
2021-12-28 23:44:00,,0810.7,4.98,0.00,21.7,21.0,00.0,30.9,23.2,06.3,0000.0,0002.77,0015.49,0000.76
2021-12-28 23:45:00,,0810.7,5.01,0.00,21.7,20.9,00.0,30.9,23.2,06.3,0000.0,0002.77,0015.50,0000.75
2021-12-28 23:46:00,,0810.7,5.00,0.00,21.6,21.1,00.0,30.9,23.2,06.4,0000.0,0002.76,0014.37,0000.75
2021-12-28 23:47:00,,0810.8,4.99,0.00,21.8,21.8,00.0,30.9,23.5,06.3,0000.0,0002.79,0013.26,0000.76
2021-12-28 23:48:00,,0810.8,5.00,0.00,21.9,22.6,00.0,30.9,23.9,06.2,0000.0,0002.84,0013.94,0000.76
2021-12-28 23:49:00,,0810.9,5.00,0.00,22.1,23.1,00.0,31.0,24.1,06.2,0000.0,0002.83,0014.82,0000.76
2021-12-28 23:50:00,,0810.8,4.99,0.00,22.1,22.9,00.0,31.0,24.1,06.1,0000.0,0002.71,0015.71,0000.76
2021-12-28 23:51:00,,0810.8,5.00,0.00,22.1,22.5,00.0,31.0,23.9,06.2,0000.0,0002.65,0015.44,0000.76
2021-12-28 23:52:00,,0810.8,5.01,0.00,22.1,22.2,00.0,31.0,23.8,06.2,0000.0,0002.54,0014.82,0000.77
2021-12-28 23:53:00,,0810.8,4.99,0.00,22.0,22.0,00.0,31.0,23.7,06.2,0000.0,0002.46,0013.82,0000.76
2021-12-28 23:54:00,,0810.9,5.02,0.00,22.0,21.8,00.0,31.0,23.6,06.2,0000.0,0002.50,0015.00,0000.77
2021-12-28 23:55:00,,0810.8,4.99,0.00,21.9,21.5,00.0,31.0,23.5,06.2,0000.0,0002.55,0015.69,0000.76
2021-12-28 23:56:00,,0810.9,5.01,0.00,21.9,21.4,00.0,31.0,23.4,06.2,0000.0,0002.65,0015.93,0000.77
2021-12-28 23:57:00,,0811.0,5.00,0.00,21.8,21.2,00.0,31.0,23.3,06.2,0000.0,0002.57,0016.59,0000.76
2021-12-28 23:58:00,,0811.0,5.01,0.00,21.8,21.2,00.0,31.0,23.3,06.2,0000.0,0002.51,0016.24,0000.75
2021-12-28 23:59:00,,0811.0,4.99,0.00,21.7,21.1,00.0,30.9,23.2,06.2,0000.0,0002.47,0015.45,0000.75
